Regional Weather Roundup
Issued by NWS

Home | Current Version | Previous Version | Graphics & Text | Print | Product List | Glossary On
Versions: 1 2 3 4 5 6 7 8 9 10 11 12 13 14 15 16 17 18 19 20 21 22 23 24 25 26 27 28 29 30 31 32 33 34 35 36 37 38 39 40 41 42 43 44 45 46 47 48 49 50
416
ASUS43 KDTX 232110
RWRMI
MICHIGAN HOURLY REGIONAL WEATHER ROUNDUP
NATIONAL WEATHER SERVICE DETROIT/PONTIAC MI
500 PM EDT MON OCT 23 2017

NOTE: "FAIR" INDICATES FEW OR NO CLOUDS BELOW 12,000 FEET WITH NO
SIGNIFICANT WEATHER AND/OR OBSTRUCTION TO VISIBILITY.

MIZ047>049-052>055-059>063-066>070-074>076-081>083-232200-
SOUTHEAST LOWER MICHIGAN

CITY           SKY/WX    TMP DP  RH WIND       PRES   REMARKS
ADRIAN         LGT RAIN  62  60  93 S14G24    29.54F
ALMA           HVY RAIN  55  54  96 N9        29.56F
ANN ARBOR      RAIN      62  61  96 E12G21    29.54F FOG
BAD AXE        RAIN      62  58  89 SE6       29.62F
CARO           LGT RAIN  61  59  92 E7        29.57F
DETROIT CITY   LGT RAIN  63  61  93 SE10      29.58F FOG
DETROIT        LGT RAIN  63  61  93 SE8       29.56F FOG
FLINT          LGT RAIN  61  60  97 SE9       29.55F FOG
GROSSE ILE     RAIN      63  61  93 SE13G21   29.56F
HILLSDALE      LGT RAIN  61  57  88 S9G18     29.52F
HOWELL         RAIN      61  60  96 SE12      29.53F

CITY           SKY/WX    TMP DP  RH WIND       PRES   REMARKS
JACKSON        LGT RAIN  63  60  90 SE12G17   29.50F
LAMBERTVILLE   HVY RAIN  65  62  91 S12G17    29.56F
LANSING        RAIN      61  59  93 E3        29.53F FOG
LAPEER         LGT RAIN  61  59  93 SE9       29.58F
MASON          RAIN      63  60  92 SE7       29.52F
MONROE         RAIN      64  61  92 SE9G17    29.55F
MT. CLEMENS    LGT RAIN  62  62 100 SE14      29.57F FOG
PONTIAC        RAIN      61  61 100 SE13G21   29.56F FOG
PORT HOPE        N/A     61  58  90 SE13      29.61F
PORT HURON     LGT RAIN  64  61  88 SE9       29.61F
TRI CITIES     HVY RAIN  59  59 100 NE9       29.56F VSB 3/4
MIDLAND        HVY RAIN  56  56  99 N6        29.57F
TROY           LGT RAIN  62  60  94 SE8G16    29.59F
SAGINAW HB     HVY RAIN  59  59 100 E7        29.56F
$$
MIZ043>046-050>051-056>058-064>065-071>073-077>080-232200-
SOUTHWEST LOWER MICHIGAN

CITY           SKY/WX    TMP DP  RH WIND       PRES   REMARKS
BATTLE CREEK   RAIN      59  58  96 NW9       29.52F VSB 1
BENTON HARBOR  LGT RAIN  56  53  90 NW8       29.60F
BIG RAPIDS     LGT SNOW  50  49  93 N6        29.60F
COLDWATER      RAIN      62  61  97 S7        29.49F
FREMONT        RAIN      51  51 100 N8        29.63R
HOLLAND        LGT RAIN  53  51  93 N8        29.60F
GRAND RAPIDS   RAIN      52  52 100 N12       29.56F FOG
IONIA          HVY RAIN  54  54  99 N8        29.54F
KALAMAZOO      RAIN      54  51  90 NW16      29.54F VSB 1
LUDINGTON      RAIN      51  49  95 N5        29.65F
MARSHALL       LGT RAIN  61  60  97 CALM      29.50F
MOUNT PLEASANT HVY RAIN  54  52  94 N8        29.58F
MUSKEGON       RAIN      53  51  93 N9        29.62F FOG
SOUTH HAVEN    RAIN      55  53  95 N14G21    29.59F
$$
MIZ016>042-232200-
NORTHERN LOWER MICHIGAN

CITY           SKY/WX    TMP DP  RH WIND       PRES   REMARKS
ALPENA         HVY RAIN  53  53 100 N7        29.67F FOG
BEAVER ISLAND  CLOUDY    52  49  89 CALM      29.73F
BELLAIRE       MIX PCPN  50  49  94 CALM      29.70F
CADILLAC       LGT RAIN  48  48  99 N6        29.65F
CHARLEVOIX     LGT RAIN  51  51 100 NE5       29.73F
FRANKFORT      CLOUDY    53  51  95 CALM      29.67F
GAYLORD        LGT RAIN  49  47  93 NE6       29.68F
GRAYLING       RAIN      50  48  95 N7        29.67F
HARBOR SPRINGS RAIN      49  48  95 N3        29.71F
HOUGHTON LAKE  HVY RAIN  50  48  93 N8        29.65F FOG
MANISTEE       RAIN      51  50  96 N5        29.66F
OSCODA         HVY RAIN  56  55  99 NW9       29.63F
PELLSTON       RAIN      50  49  96 NW5       29.72F FOG
ROGERS CITY    RAIN      52  51  95 N7        29.70F
TRAVERSE CITY  RAIN      53  50  89 N5        29.68F FOG
$$
MIZ007>008-015-232200-
EASTERN UPPER MICHIGAN

CITY           SKY/WX    TMP DP  RH WIND       PRES   REMARKS
KINROSS        RAIN      50  49  96 N5        29.73F
MACKINAC ISLAN MIX PCPN  50  50 100 NE5       29.73S
NEWBERRY       CLOUDY    51  50  96 E5        29.74R
S. S. MARIE    LGT RAIN  53  50  89 CALM      29.73F
MUNISING         N/A     54  45  71 S5        29.72S
$$
MIZ004>006-011>014-085-232200-
CENTRAL UPPER MICHIGAN

CITY           SKY/WX    TMP DP  RH WIND       PRES   REMARKS
MANISTIQUE     CLOUDY    51  45  79 CALM      29.72F
ESCANABA       CLOUDY    51  45  79 CALM      29.72F
MENOMINEE      CLOUDY    52  47  83 CALM      29.71F
SAWYER-GWINN   SUNNY     52  41  66 S7        29.72F
$$
MIZ001>003-009>011-084-232200-
WESTERN UPPER MICHIGAN

CITY           SKY/WX    TMP DP  RH WIND       PRES   REMARKS
IRON MOUNTAIN  CLOUDY    52  40  63 SE5       29.69F
HOUGHTON       PTSUNNY   59  38  45 S7        29.67S
COPPER HARBOR    N/A     58  41  53 VRB6      29.67F
IRONWOOD       MOSUNNY   58  41  53 NW12      29.68R
$$

ABBREVIATIONS USED IN REMARKS
   TC - TEMPERATURE IN CELSIUS
  WCI - WIND CHILL INDEX
   HX - HEAT INDEX
  VSB - VISIBILITY





USA.gov is the U.S. government's official web portal to all federal, state and local government web resources and services.